Location: Poughquag
(41.6090°N, 73.6820°W)
Time: 03:31:21
(UTC-04:00)

Explorer 11/Cluster Stage 4 - Pass Details

Date: 29 May 2020
Orbit: 467 x 1259 km, 28.8° (Epoch: 06 July)

Event Time Altitude Azimuth Distance (km) Brightness Sun altitude
Rises 09:04:55 0° 244° (WSW) 3,897 9.7 38.8°
Reaches altitude 10° 09:07:54 10° 235° (SW) 3,036 9.3 39.3°
Maximum altitude 09:14:31 32° 176° (S) 1,978 9.1 40.5°
Drops below altitude 10° 09:21:33 10° 118° (ESE) 3,230 10.7 41.8°
Sets 09:24:49 0° 109° (ESE) 4,179 11.1 42.5°
